• în Republica Moldova
  • Lista ţărilor
  • Pe 7 zile
  • Temperatura apei
  • Hartă satelitară
  • Meteo pe hartă
  • Widget-uri
  • user-avatar
    Intrare

    Meteo pe oră la Albany

    Astăzi, 29 Mai, Luni

    Timp Temperatura Precipitaţii Vânt Presiune Umiditate
    00:00 +12°C° 0 mm 3 m/s 765 mmHg 79%
    01:00 +11°C° 0 mm 3 m/s 765 mmHg 81%
    02:00 +11°C° 0 mm 3 m/s 765 mmHg 83%
    03:00 +11°C° 0 mm 3 m/s 765 mmHg 83%
    04:00 +11°C° 0 mm 3 m/s 765 mmHg 83%
    05:00 +11°C° 0 mm 3 m/s 765 mmHg 83%
    06:00 +11°C° 0 mm 3 m/s 765 mmHg 82%
    07:00 +11°C° 0 mm 3 m/s 765 mmHg 81%
    08:00 +12°C° 0 mm 4 m/s 765 mmHg 80%
    09:00 +13°C° 0 mm 3 m/s 765 mmHg 73%
    10:00 +16°C° 0 mm 3 m/s 765 mmHg 66%
    11:00 +17°C° 0 mm 3 m/s 765 mmHg 59%
    12:00 +18°C° 0 mm 2 m/s 765 mmHg 56%
    13:00 +20°C° 0 mm 1 m/s 765 mmHg 53%
    14:00 +20°C° 0 mm 1 m/s 765 mmHg 50%
    15:00 +19°C° 0 mm 1 m/s 765 mmHg 55%
    16:00 +16°C° 0 mm 1 m/s 765 mmHg 61%
    17:00 +15°C° 0 mm 1 m/s 765 mmHg 66%
    18:00 +14°C° 0 mm 2 m/s 765 mmHg 66%
    19:00 +14°C° 0 mm 2 m/s 765 mmHg 67%
    20:00 +12°C° 0 mm 4 m/s 765 mmHg 70%
    21:00 +12°C° 0 mm 4 m/s 765 mmHg 70%
    22:00 +12°C° 0 mm 4 m/s 765 mmHg 69%
    23:00 +12°C° 0 mm 4 m/s 765 mmHg 69%

    Mâine, 30 Mai, Marţi

    Timp Temperatura Precipitaţii Vânt Presiune Umiditate
    00:00 +10°C° 0 mm 5 m/s 765 mmHg 67%
    01:00 +10°C° 0 mm 5 m/s 765 mmHg 66%
    02:00 +10°C° 0 mm 5 m/s 764 mmHg 65%
    03:00 +10°C° 0 mm 5 m/s 764 mmHg 65%
    04:00 +10°C° 0 mm 5 m/s 764 mmHg 66%
    05:00 +10°C° 0 mm 5 m/s 764 mmHg 66%
    06:00 +10°C° 0 mm 5 m/s 764 mmHg 66%
    07:00 +10°C° 0 mm 5 m/s 764 mmHg 67%
    08:00 +10°C° 0 mm 5 m/s 764 mmHg 67%
    09:00 +13°C° 0 mm 5 m/s 764 mmHg 61%
    10:00 +15°C° 0 mm 5 m/s 763 mmHg 55%
    11:00 +18°C° 0 mm 4 m/s 763 mmHg 49%
    12:00 +19°C° 0 mm 4 m/s 763 mmHg 47%
    13:00 +20°C° 0 mm 3 m/s 762 mmHg 45%
    14:00 +21°C° 0 mm 2 m/s 762 mmHg 43%
    15:00 +19°C° 0 mm 2 m/s 762 mmHg 51%
    16:00 +18°C° 0 mm 1 m/s 762 mmHg 59%
    17:00 +15°C° 0 mm 1 m/s 762 mmHg 68%
    18:00 +15°C° 0 mm 1 m/s 762 mmHg 67%
    19:00 +15°C° 0 mm 2 m/s 762 mmHg 67%
    20:00 +15°C° 0 mm 2 m/s 762 mmHg 67%
    21:00 +14°C° 0 mm 3 m/s 762 mmHg 66%
    22:00 +14°C° 0 mm 3 m/s 762 mmHg 65%
    23:00 +14°C° 0 mm 3 m/s 761 mmHg 63%

    Poimâine, 31 Mai, Miercuri

    Timp Temperatura Precipitaţii Vânt Presiune Umiditate
    00:00 +13°C° 0 mm 4 m/s 761 mmHg 64%
    01:00 +13°C° 0 mm 4 m/s 761 mmHg 65%
    02:00 +13°C° 0 mm 4 m/s 761 mmHg 65%
    03:00 +13°C° 0 mm 5 m/s 761 mmHg 64%
    04:00 +14°C° 0 mm 5 m/s 760 mmHg 63%
    05:00 +14°C° 0 mm 5 m/s 760 mmHg 61%
    06:00 +14°C° 0 mm 5 m/s 760 mmHg 60%
    07:00 +14°C° 0 mm 5 m/s 761 mmHg 59%
    08:00 +14°C° 0 mm 5 m/s 761 mmHg 58%
    09:00 +16°C° 0 mm 5 m/s 761 mmHg 54%
    10:00 +17°C° 0 mm 5 m/s 761 mmHg 50%
    11:00 +20°C° 0 mm 4 m/s 761 mmHg 46%
    12:00 +21°C° 0 mm 4 m/s 760 mmHg 45%
    13:00 +22°C° 0 mm 4 m/s 760 mmHg 44%
    14:00 +24°C° 0 mm 3 m/s 760 mmHg 43%
    15:00 +22°C° 0 mm 3 m/s 760 mmHg 48%
    16:00 +20°C° 0 mm 2 m/s 760 mmHg 54%
    17:00 +18°C° 0 mm 2 m/s 760 mmHg 59%
    18:00 +18°C° 0 mm 2 m/s 760 mmHg 60%
    19:00 +17°C° 0 mm 2 m/s 760 mmHg 60%
    20:00 +17°C° 0 mm 2 m/s 761 mmHg 60%
    21:00 +16°C° 0 mm 2 m/s 761 mmHg 62%
    22:00 +16°C° 0 mm 3 m/s 761 mmHg 64%
    23:00 +16°C° 0 mm 3 m/s 761 mmHg 66%

    1 Iunie, Joi

    Timp Temperatura Precipitaţii Vânt Presiune Umiditate
    00:00 +14°C° 0 mm 3 m/s 760 mmHg 68%
    01:00 +14°C° 0 mm 3 m/s 760 mmHg 70%
    02:00 +14°C° 0 mm 3 m/s 760 mmHg 72%
    03:00 +13°C° 0 mm 3 m/s 760 mmHg 72%
    04:00 +13°C° 0 mm 3 m/s 760 mmHg 72%
    05:00 +13°C° 0 mm 4 m/s 760 mmHg 72%
    06:00 +13°C° 0 mm 4 m/s 760 mmHg 73%
    07:00 +13°C° 0 mm 4 m/s 761 mmHg 74%
    08:00 +13°C° 0 mm 4 m/s 761 mmHg 74%
    09:00 +15°C° 0 mm 4 m/s 761 mmHg 71%
    10:00 +18°C° 0 mm 4 m/s 761 mmHg 67%
    11:00 +20°C° 0 mm 4 m/s 762 mmHg 64%
    12:00 +21°C° 0 mm 4 m/s 761 mmHg 61%
    13:00 +22°C° 0 mm 4 m/s 761 mmHg 59%
    14:00 +22°C° 0 mm 4 m/s 761 mmHg 56%
    15:00 +21°C° 0 mm 3 m/s 761 mmHg 62%
    16:00 +19°C° 0 mm 3 m/s 762 mmHg 69%
    17:00 +18°C° 0 mm 2 m/s 762 mmHg 75%
    18:00 +17°C° 0 mm 2 m/s 762 mmHg 77%
    19:00 +16°C° 0 mm 2 m/s 763 mmHg 80%
    20:00 +16°C° 0 mm 2 m/s 763 mmHg 82%
    21:00 +14°C° 0 mm 3 m/s 763 mmHg 84%
    22:00 +14°C° 0 mm 3 m/s 764 mmHg 86%
    23:00 +13°C° 0 mm 3 m/s 764 mmHg 88%

    2 Iunie, Vineri

    Timp Temperatura Precipitaţii Vânt Presiune Umiditate
    00:00 +13°C° 0 mm 3 m/s 763 mmHg 88%
    01:00 +13°C° 0 mm 3 m/s 763 mmHg 89%
    02:00 +13°C° 0 mm 3 m/s 763 mmHg 89%
    03:00 +13°C° 0 mm 3 m/s 763 mmHg 90%
    04:00 +12°C° 0 mm 3 m/s 763 mmHg 91%
    05:00 +12°C° 0 mm 3 m/s 763 mmHg 92%
    06:00 +13°C° 0 mm 3 m/s 763 mmHg 92%
    07:00 +13°C° 0 mm 3 m/s 764 mmHg 91%
    08:00 +13°C° 0 mm 4 m/s 764 mmHg 90%
    09:00 +15°C° 0 mm 4 m/s 764 mmHg 81%
    10:00 +18°C° 0 mm 4 m/s 764 mmHg 71%
    11:00 +20°C° 0 mm 4 m/s 764 mmHg 62%
    12:00 +21°C° 0 mm 4 m/s 763 mmHg 60%
    13:00 +21°C° 0 mm 3 m/s 763 mmHg 58%
    14:00 +22°C° 0 mm 3 m/s 762 mmHg 56%
    15:00 +21°C° 0 mm 2 m/s 762 mmHg 61%
    16:00 +20°C° 0 mm 2 m/s 762 mmHg 67%
    17:00 +20°C° 0 mm 1 m/s 763 mmHg 72%
    18:00 +18°C° 0 mm 2 m/s 763 mmHg 76%
    19:00 +17°C° 0 mm 2 m/s 763 mmHg 80%
    20:00 +16°C° 0 mm 3 m/s 763 mmHg 83%
    21:00 +15°C° 0 mm 4 m/s 763 mmHg 84%
    22:00 +15°C° 0 mm 4 m/s 763 mmHg 85%
    23:00 +15°C° 0 mm 5 m/s 763 mmHg 86%

    3 Iunie, Sâmbătă

    Timp Temperatura Precipitaţii Vânt Presiune Umiditate
    00:00 +15°C° 0 mm 5 m/s 762 mmHg 86%
    01:00 +14°C° 0 mm 5 m/s 762 mmHg 87%
    02:00 +14°C° 0 mm 5 m/s 762 mmHg 87%
    03:00 +14°C° 0,1 mm 5 m/s 762 mmHg 88%
    04:00 +14°C° 0,1 mm 5 m/s 762 mmHg 88%
    05:00 +14°C° 0,1 mm 6 m/s 762 mmHg 89%
    06:00 +15°C° 1,3 mm 6 m/s 762 mmHg 90%
    07:00 +15°C° 1,3 mm 6 m/s 763 mmHg 92%
    08:00 +15°C° 1,3 mm 6 m/s 763 mmHg 93%
    09:00 +15°C° 0,2 mm 6 m/s 763 mmHg 90%
    10:00 +16°C° 0,2 mm 6 m/s 764 mmHg 87%
    11:00 +16°C° 0,2 mm 6 m/s 764 mmHg 84%
    12:00 +16°C° 0 mm 6 m/s 764 mmHg 79%
    13:00 +15°C° 0 mm 6 m/s 764 mmHg 74%
    14:00 +15°C° 0 mm 6 m/s 764 mmHg 70%
    15:00 +15°C° 0 mm 5 m/s 765 mmHg 68%
    16:00 +14°C° 0 mm 5 m/s 765 mmHg 66%
    17:00 +14°C° 0 mm 4 m/s 766 mmHg 63%
    18:00 +13°C° 0 mm 4 m/s 767 mmHg 64%
    19:00 +13°C° 0 mm 4 m/s 767 mmHg 64%
    20:00 +13°C° 0 mm 3 m/s 768 mmHg 64%
    21:00 +13°C° 0 mm 3 m/s 768 mmHg 66%
    22:00 +13°C° 0 mm 3 m/s 768 mmHg 67%
    23:00 +12°C° 0 mm 4 m/s 768 mmHg 68%
    Arată mai mult